Weather History for KOPM - November, 2012

Change the Weather History Date:

Monday, November 19, 2012

  Actual Average Record
Temperature  
Mean Temperature 72 °F -  
Max Temperature 73 °F - - ()
Min Temperature 71 °F - - ()
Cooling Degree Days 7    
Growing Degree Days 22 (Base 50)    
Moisture  
Dew Point 58 °F    
Average Humidity 60    
Maximum Humidity 64    
Minimum Humidity 53    
Precipitation  
Precipitation 0.00 in - - ()
Sea Level Pressure  
Sea Level Pressure 30.18 in    
Wind  
Wind Speed 9 mph (East)    
Max Wind Speed 14 mph    
Max Gust Speed -    
Visibility 9 miles    
Events      
T = Trace of Precipitation, MM = Missing Value Source: NWS Daily Summary

Daily Weather History Graph

Daily Weather History Graph

Search for Another Location

Airport or City:

Trip Planner

Search our weather history database for the weather conditions in past years. The results will help you decide how hot, cold, wet, or windy it might be!

Date:

Astronomy

Nov. 19, 2012 Rise Set
Actual Time 6:50 AM CST 5:35 PM CST
Civil Twilight 6:26 AM CST 6:00 PM CST
Nautical Twilight 5:57 AM CST 6:28 PM CST
Astronomical Twilight 5:30 AM CST 6:56 PM CST
Moon 12:06 PM CST (11/19) 11:48 PM CST (11/19)
Length of Visible Light 11h 34m
Length of Day
10h 44m
Waxing Crescent, 41% of the Moon is Illuminated
Nov 19
Waxing Crescent
Nov 20
First Quarter
Nov 28
Full
Dec 6
Last Quarter
Dec 13
New

Hourly Weather History & Observations

Time (CST) Temp. Dew Point Humidity Pressure Visibility Wind Dir Wind Speed Gust Speed Precip Events Conditions
12:15 AM 71.6 °F 53.6 °F 53% 30.20 in 9.0 mi East 10.4 mph - N/A   Clear
12:35 AM 71.6 °F 53.6 °F 53% 30.20 in 10.0 mi East 11.5 mph - N/A   Clear
12:55 AM 71.6 °F 53.6 °F 53% 30.20 in 9.0 mi East 11.5 mph - N/A   Clear
1:15 AM 71.6 °F 55.4 °F 57% 30.20 in 10.0 mi East 12.7 mph - N/A   Clear
1:35 AM 71.6 °F 55.4 °F 57% 30.19 in 7.0 mi ESE 12.7 mph - N/A   Clear
1:55 AM 71.6 °F 55.4 °F 57% 30.19 in 8.0 mi East 12.7 mph - N/A   Clear
2:35 AM 71.6 °F 55.4 °F 57% 30.18 in 9.0 mi East 12.7 mph - N/A   Clear
2:55 AM 71.6 °F 55.4 °F 57% 30.18 in 10.0 mi ESE 10.4 mph - N/A   Clear
3:15 AM 71.6 °F 55.4 °F 57% 30.17 in 9.0 mi East 10.4 mph - N/A   Clear
3:55 AM 71.6 °F 57.2 °F 60% 30.17 in 10.0 mi East 10.4 mph - N/A   Clear
4:15 AM 71.6 °F 57.2 °F 60% 30.16 in 10.0 mi East 13.8 mph - N/A   Clear
4:35 AM 71.6 °F 57.2 °F 60% 30.16 in 9.0 mi ESE 10.4 mph - N/A   Clear
4:55 AM 71.6 °F 57.2 °F 60% 30.17 in 10.0 mi ESE 9.2 mph - N/A   Clear
5:15 AM 71.6 °F 57.2 °F 60% 30.17 in 10.0 mi ESE 9.2 mph - N/A   Clear
5:35 AM 71.6 °F 57.2 °F 60% 30.18 in 8.0 mi SE 9.2 mph - N/A   Scattered Clouds
5:55 AM 71.6 °F 57.2 °F 60% 30.18 in 10.0 mi ESE 9.2 mph - N/A   Partly Cloudy
6:15 AM 71.6 °F 57.2 °F 60% 30.18 in 8.0 mi ESE 10.4 mph - N/A   Clear
6:35 AM 71.6 °F 57.2 °F 60% 30.18 in 7.0 mi SE 8.1 mph - N/A   Clear
6:55 AM 71.6 °F 57.2 °F 60% 30.18 in 9.0 mi SE 9.2 mph - N/A   Clear
7:35 AM 71.6 °F 59.0 °F 64% 30.19 in 10.0 mi ESE 8.1 mph - N/A   Clear
7:55 AM 73.4 °F 57.2 °F 57% 30.20 in 9.0 mi ESE 9.2 mph - N/A   Clear
8:15 AM 73.4 °F 57.2 °F 57% 30.21 in 9.0 mi ESE 8.1 mph - N/A   Partly Cloudy
8:35 AM 73.4 °F 57.2 °F 57% 30.22 in 7.0 mi ESE 4.6 mph - N/A   Partly Cloudy
8:55 AM 73.4 °F 57.2 °F 57% 30.22 in 7.0 mi ESE 4.6 mph - N/A   Clear
9:15 AM 73.4 °F 59.0 °F 61% 30.23 in 9.0 mi ESE 4.6 mph - N/A   Clear
9:30 AM 73.4 °F 59.0 °F 61% 30.23 in 7.0 mi ESE 5.8 mph - N/A   Clear
9:55 AM - - N/A% 30.24 in - East 4.6 mph - N/A   Unknown
10:15 AM 73.4 °F 59.0 °F 61% 30.24 in 10.0 mi ESE 4.6 mph - N/A   Unknown
10:35 AM 73.4 °F 59.0 °F 61% 30.24 in 8.0 mi East 5.8 mph - N/A   Scattered Clouds
10:55 AM 73.4 °F 59.0 °F 61% 30.23 in 8.0 mi ESE 5.8 mph - N/A   Clear
11:15 AM 73.4 °F 59.0 °F 61% 30.23 in 9.0 mi East 4.6 mph - N/A   Clear
11:35 AM 73.4 °F 59.0 °F 61% 30.22 in 9.0 mi East 4.6 mph - N/A   Clear
11:55 AM 73.4 °F 59.0 °F 61% 30.21 in 8.0 mi ENE 6.9 mph - N/A   Clear
12:15 PM 73.4 °F 59.0 °F 61% 30.20 in 9.0 mi ESE 4.6 mph - N/A   Clear
12:35 PM 73.4 °F 59.0 °F 61% 30.19 in 8.0 mi East 5.8 mph - N/A   Clear
12:55 PM 73.4 °F 59.0 °F 61% 30.19 in 8.0 mi East 5.8 mph - N/A   Clear
1:15 PM 73.4 °F 59.0 °F 61% 30.18 in 9.0 mi East 6.9 mph - N/A   Clear
1:35 PM 73.4 °F 59.0 °F 61% 30.17 in 9.0 mi ENE 5.8 mph - N/A   Clear
1:55 PM 73.4 °F 59.0 °F 61% 30.16 in 9.0 mi ENE 6.9 mph - N/A   Clear
2:15 PM 73.4 °F 57.2 °F 57% 30.16 in 6.0 mi ENE 8.1 mph - N/A   Haze
2:35 PM 73.4 °F 57.2 °F 57% 30.15 in 8.0 mi ENE 6.9 mph - N/A   Clear
2:55 PM 73.4 °F 57.2 °F 57% 30.14 in 10.0 mi ENE 8.1 mph - N/A   Clear
3:15 PM 73.4 °F 59.0 °F 61% 30.14 in 10.0 mi ENE 9.2 mph - N/A   Clear
3:35 PM 73.4 °F 59.0 °F 61% 30.14 in 9.0 mi ENE 9.2 mph - N/A   Clear
3:55 PM 73.4 °F 59.0 °F 61% 30.14 in 9.0 mi ENE 8.1 mph - N/A   Clear
4:15 PM 73.4 °F 57.2 °F 57% 30.14 in 9.0 mi East 8.1 mph - N/A   Clear
4:55 PM 73.4 °F 57.2 °F 57% 30.14 in 6.0 mi ENE 6.9 mph - N/A   Haze
5:15 PM 73.4 °F 59.0 °F 61% 30.15 in 10.0 mi ENE 8.1 mph - N/A   Clear
5:35 PM 73.4 °F 59.0 °F 61% 30.15 in 9.0 mi ENE 8.1 mph - N/A   Clear
5:55 PM 73.4 °F 59.0 °F 61% 30.15 in 6.0 mi ENE 9.2 mph - N/A   Haze
6:15 PM 73.4 °F 59.0 °F 61% 30.16 in 10.0 mi ENE 9.2 mph - N/A   Clear
6:35 PM 73.4 °F 59.0 °F 61% 30.16 in 10.0 mi ENE 10.4 mph - N/A   Clear
6:55 PM 73.4 °F 59.0 °F 61% 30.16 in 10.0 mi ENE 9.2 mph - N/A   Clear
7:15 PM 73.4 °F 59.0 °F 61% 30.17 in 9.0 mi ENE 9.2 mph - N/A   Clear
7:35 PM 73.4 °F 59.0 °F 61% 30.18 in 9.0 mi ENE 9.2 mph - N/A   Clear
7:55 PM 73.4 °F 59.0 °F 61% 30.18 in 10.0 mi East 10.4 mph - N/A   Clear
8:15 PM 73.4 °F 59.0 °F 61% 30.18 in 7.0 mi East 9.2 mph - N/A   Clear
8:35 PM 73.4 °F 59.0 °F 61% 30.18 in 10.0 mi ENE 9.2 mph - N/A   Clear
8:55 PM 73.4 °F 59.0 °F 61% 30.18 in 8.0 mi ENE 8.1 mph - N/A   Clear
9:15 PM 73.4 °F 59.0 °F 61% 30.18 in - ENE 10.4 mph - N/A   Clear
9:35 PM 73.4 °F 59.0 °F 61% 30.18 in 6.0 mi East 9.2 mph - N/A   Haze
9:55 PM 73.4 °F 59.0 °F 61% 30.18 in 10.0 mi East 10.4 mph - N/A   Clear
10:15 PM 73.4 °F 59.0 °F 61% 30.18 in 9.0 mi East 9.2 mph - N/A   Clear
10:35 PM 73.4 °F 59.0 °F 61% 30.18 in 10.0 mi East 8.1 mph - N/A   Clear
10:55 PM 73.4 °F 59.0 °F 61% 30.17 in 9.0 mi East 9.2 mph - N/A   Clear
11:15 PM 73.4 °F 59.0 °F 61% 30.17 in 9.0 mi ESE 8.1 mph - N/A   Clear
11:35 PM 73.4 °F 59.0 °F 61% 30.16 in 9.0 mi ESE 8.1 mph - N/A   Clear
11:55 PM 73.4 °F 59.0 °F 61% 30.16 in 10.0 mi ESE 8.1 mph - N/A   Scattered Clouds